カタログに戻る

FENGYUN 1C DEB

運用中SSO
NORAD 30142·DEBRIS·🇨🇳 China

打ち上げ May 10, 1999 から Taiyuan Satellite Launch Center

Loading…

次のパス (今後24時間)

TLE

最新Source: Space-Track

元期: Sep 14, 2026, 04:42 UTC

1 30142U 99025SX  26257.19601013  .00001890  00000-0  10102-2 0  9992
2 30142  99.1179 342.3679 0100087 255.4118 103.5937 14.11956540  1852

AllMySatでFENGYUN 1C DEBをリアルタイム追跡

Download on the App Store